#timestamp,LO_Frequency,Hit,StdDev 
1580133615.3,286046981.2,N
1580133635.1,286046988.7,N
1580133655.9,286046995.3,N
1580133675.7,286046996.4,N
1580133695.5,286046986.8,N
1580133715.4,286046987.4,N
1580133735.2,286046993.6,N
1580133755.1,286046994.7,N
1580133756.0,286046994.7,N
1580133775.8,286046994.4,N
1580133795.6,286046998.7,N
1580133815.5,286046996.0,N
1580133835.3,286046993.8,N
1580133855.1,286046993.3,N
1580133875.9,286046992.3,N
1580133895.7,286046983.9,N
1580133915.6,286046988.5,N
1580133935.4,286046985.9,N
1580133955.2,286046985.7,N
1580133975.1,286046994.5,N
1580133976.0,286046994.5,N
1580133995.8,286047002.2,N
1580134015.6,286047003.6,N
1580134035.5,286047002.2,N
1580134055.3,286047004.1,N
1580134075.2,286047001.4,N
1580134095.9,286047000.3,N
1580134115.7,286046998.8,N
1580134135.6,286046996.4,N
1580134155.4,286046987.8,N
1580134175.3,286046971.4,Y
1580134195.1,286046971.8,P
1580134196.0,286046971.8,N
1580134215.8,286046963.1,P
1580134235.7,286046965.1,Y
1580134255.5,286046994.3,P
1580134275.3,286046996.6,N
1580134295.2,286046992.1,N
1580134315.0,286047001.0,N
1580134315.9,286047001.0,N
1580134335.8,286047006.7,N
1580134355.6,286047005.8,N
1580134375.4,286047008.5,N
1580134395.3,286047010.6,N
1580134415.1,286047011.0,N
1580134435.8,286047018.7,N
1580134455.7,286047003.0,N
1580134475.5,286047001.5,N
1580134525.4,286046971.9,E
1580134535.3,286046976.5,N
1580134555.1,286046983.6,P
1580134575.9,286046977.4,P
1580134595.7,286046974.5,Y
1580134615.6,286046990.5,P
1580134635.4,286046982.6,P
1580134655.2,286046975.7,P
1580134675.1,286046970.4,Y
1580134676.0,286046970.4,P
1580134695.8,286046986.4,N
1580134715.7,286046988.3,N
1580134735.5,286046983.8,N
1580134755.3,286046982.6,N
1580134775.2,286046984.7,N
1580134795.9,286046982.3,Y
1580134815.7,286047003.3,P
1580134835.6,286047006.8,N
1580134855.4,286047009.8,N
1580134875.3,286047008.1,N
1580134895.1,286047012.0,N
1580134896.0,286047012.0,N
1580134915.8,286047020.4,N
1580134935.7,286047026.5,N
1580134955.5,286047033.7,N
1580134975.3,286047039.0,N
1580134995.2,286047046.7,Y
1580135015.0,286047029.8,P
1580135015.9,286047029.8,P
1580135035.8,286047023.0,P
1580135055.6,286047025.2,Y
1580135075.4,286046994.3,P
1580135095.3,286046991.7,N
1580135115.1,286046980.8,N
1580135135.9,286046977.5,N
1580135155.7,286046971.0,N
1580135175.5,286046966.0,N
1580135195.4,286046967.0,N
1580135215.2,286046982.0,N
1580135235.0,286046989.2,N
1580135235.9,286046989.2,N
1580135255.8,286046992.0,N
1580135275.6,286046996.4,N
1580135295.5,286046995.1,N
1580135315.3,286047009.0,N
1580135335.1,286047014.5,N
1580135355.9,286047013.2,N
1580135375.7,286047022.0,N
1580135395.5,286047022.8,N
1580135415.4,286047015.1,N
1580135435.2,286047007.1,N
1580135455.1,286046999.4,N
1580135456.0,286046999.4,N
1580135475.8,286047001.4,N
1580135495.6,286047009.9,N
1580135515.5,286047017.1,N
1580135535.3,286047016.7,N
1580135555.1,286047023.2,N
1580135575.9,286047018.6,N
1580135595.7,286047018.6,N
1580135615.6,286047016.0,N
1580135635.4,286047024.4,N
1580135655.2,286047031.6,N
1580135675.1,286047029.4,N
1580135676.0,286047029.4,N
1580135695.8,286047030.6,N
1580135715.6,286047035.9,N
1580135735.5,286047042.5,N
1580135755.3,286047040.4,N
1580135775.2,286047044.8,Y
1580135795.9,286047038.3,P
1580135815.7,286047045.9,P
1580135835.6,286047041.4,P
1580135855.4,286047050.0,Y
1580135875.2,286047013.5,P
1580135895.1,286047015.8,N
1580135896.0,286047015.8,N
1580135915.8,286047019.1,N
1580135935.7,286047016.7,N
1580135955.5,286047022.6,Y
1580135975.3,286047007.1,P
1580135995.2,286046998.3,N
1580136015.0,286046990.8,N
1580136015.9,286046990.8,N
1580136035.8,286046990.8,N
1580136055.6,286046997.8,N
1580136075.4,286046999.8,N
1580136095.3,286046990.8,N
1580136115.1,286046991.9,N
1580136116.0,286046991.9,N
1580136135.8,286046992.5,N
1580136155.7,286046986.9,N
1580136175.5,286046980.5,N
1580136195.3,286046973.4,N
1580136215.2,286046968.5,Y
1580136235.0,286046965.2,P
1580136235.9,286046965.2,N
1580136255.8,286046965.6,N
1580136275.6,286046966.1,N
1580136295.4,286046975.3,N
1580136315.3,286046974.4,N
1580136335.1,286046982.6,N
1580136355.9,286046977.3,N
1580136375.7,286046979.5,N
1580136395.5,286046981.2,N
1580136415.4,286046980.3,N
1580136435.2,286046980.6,N
1580136455.0,286046986.2,N
1580136455.9,286046986.2,N
1580136475.8,286046986.3,N
1580136495.6,286046985.1,N
1580136515.5,286046981.6,N
1580136535.3,286046971.1,Y
1580136555.1,286046984.8,P
1580136575.9,286046978.2,P
1580136595.7,286046984.3,P
1580136615.6,286046988.8,Y
1580136635.4,286047006.9,P
1580136655.2,286047005.0,N
1580136675.1,286046994.6,N
1580136676.0,286046994.6,N
1580136695.8,286046993.4,N
1580136715.6,286046999.4,N
1580136735.5,286046991.1,N
1580136755.3,286046984.7,N
1580136775.2,286046976.1,Y
1580136795.9,286046988.1,P
1580136815.7,286047000.6,N
1580136835.6,286046991.1,N
1580136855.4,286046981.2,Y
1580136875.2,286046991.6,P
1580136895.1,286046982.8,P
1580136926.0,286046983.9,E
1580136935.0,286046992.4,N
1580136935.9,286046992.4,P
1580136955.8,286047007.7,P
1580136975.6,286047013.3,N
1580136995.5,286047016.7,N
1580137015.3,286047028.2,N
1580137035.1,286047026.4,N
1580137055.9,286047022.6,N
1580137075.7,286047026.2,N
1580137095.5,286047022.5,N
1580137115.4,286047028.6,N
1580137135.2,286047027.4,N
1580137155.1,286047018.9,N
1580137156.0,286047018.9,N
1580137175.8,286047015.5,N
1580137195.6,286047019.8,N
